This is the latest recevied weather packets stored in our database for station/object KB1FFS. If no packets are shown the sender has not sent any weather packets the latest 10 day(s).
| Time | Temp. | Humidity | Pressure | Rain* | Wind** | Luminosity | Snow |
|---|---|---|---|---|---|---|---|
| 1777336362 | 32.22° C | 40% | 1008.3 hPa | 0 mm | - | 29 W/m² | - |
| 1777336058 | 32.22° C | 40% | 1008.4 hPa | 0 mm | - | 34 W/m² | - |
| 1777335755 | 32.78° C | 37% | 1008.3 hPa | 0 mm | - | 40 W/m² | - |
| 1777335452 | 32.78° C | 39% | 1008.5 hPa | 0 mm | - | 45 W/m² | - |
| 1777335149 | 33.33° C | 37% | 1008.4 hPa | 0 mm | - | 50 W/m² | - |
| 1777334847 | 33.89° C | 37% | 1008.7 hPa | 0 mm | - | 56 W/m² | - |
| 1777334545 | 34.44° C | 36% | 1008.5 hPa | 0 mm | - | 60 W/m² | - |
| 1777334241 | 35° C | 34% | 1008.6 hPa | 0 mm | - | 104 W/m² | - |
| 1777333940 | 35° C | 33% | 1008.6 hPa | 0 mm | - | 113 W/m² | - |
| 1777333638 | 35.56° C | 34% | 1008.6 hPa | 0 mm | - | 128 W/m² | - |
| 1777333334 | 35.56° C | 33% | 1008.7 hPa | 0 mm | - | 143 W/m² | - |
| 1777333033 | 35.56° C | 35% | 1008.6 hPa | 0 mm | - | 160 W/m² | - |
| 1777332731 | 36.11° C | 31% | 1008.5 hPa | 0 mm | - | 176 W/m² | - |
| 1777332427 | 36.11° C | 31% | 1008.8 hPa | 0 mm | - | 192 W/m² | - |
| 1777332123 | 36.67° C | 31% | 1008.6 hPa | 0 mm | - | 209 W/m² | - |
| 1777331821 | 36.67° C | 33% | 1008.5 hPa | 0 mm | - | 236 W/m² | - |
| 1777331517 | 36.67° C | 30% | 1008.7 hPa | 0 mm | - | 252 W/m² | - |
| 1777331215 | 36.67° C | 31% | 1008.7 hPa | 0 mm | - | 268 W/m² | - |
| 1777330912 | 36.67° C | 30% | 1008.6 hPa | 0 mm | - | 281 W/m² | - |
| 1777330609 | 36.67° C | 30% | 1008.5 hPa | 0 mm | - | 303 W/m² | - |
| 1777330306 | 36.67° C | 29% | 1008.6 hPa | 0 mm | - | 318 W/m² | - |
| 1777330003 | 36.67° C | 30% | 1008.4 hPa | 0 mm | - | 339 W/m² | - |
| 1777329703 | 36.67° C | 30% | 1008.5 hPa | 0 mm | - | 357 W/m² | - |
| 1777329401 | 37.22° C | 32% | 1008.5 hPa | 0 mm | - | 371 W/m² | - |
| 1777329098 | 37.22° C | 29% | 1008.2 hPa | 0 mm | - | 397 W/m² | - |
* Rain latest hour (hover to see other rain measurements)
** Current wind speed in m/s (hover to see current wind gust speed)